Minneapolis Flying Cloud, MN

6:17 AM CST on January 23, 2018 (GMT -0600)
Flying Cloud

Weather History for KFCM - November, 2011

Change the Weather History Date:

Monday, November 28, 2011

  Actual Average Record
Temperature  
Mean Temperature 30 °F -  
Max Temperature 37 °F 37 °F 55 °F (2006)
Min Temperature 23 °F 23 °F 7 °F (2014)
Degree Days  
Heating Degree Days 35    
Moisture  
Dew Point 24 °F    
Average Humidity 76    
Maximum Humidity 88    
Minimum Humidity 64    
Precipitation  
Precipitation 0.00 in - - ()
Sea Level Pressure  
Sea Level Pressure 30.14 in    
Wind  
Wind Speed 6 mph (SSW)    
Max Wind Speed 15 mph    
Max Gust Speed -    
Visibility 10 miles    
Events      
Averages and records for this station are not official NWS values.
T = Trace of Precipitation, MM = Missing Value Source: NWS Daily Summary

Daily Weather History Graph

Daily Weather History Graph

Search for Another Location

Airport or City:

Trip Planner

Search our weather history database for the weather conditions in past years. The results will help you decide how hot, cold, wet, or windy it might be!

Date:

Astronomy

Nov. 28, 2011 Rise Set
Actual Time 7:27 AM CST 4:35 PM CST
Civil Twilight 6:54 AM CST 5:08 PM CST
Nautical Twilight 6:18 AM CST 5:44 PM CST
Astronomical Twilight 5:43 AM CST 6:19 PM CST
Moon 10:36 AM CST (11/28) 8:25 PM CST (11/28)
Length of Visible Light 10h 13m
Length of Day
9h 08m
Waxing Crescent, 16% of the Moon is Illuminated
Nov 28
Waxing Crescent
Dec 2
First Quarter
Dec 10
Full
Dec 17
Last Quarter
Dec 24
New

Hourly Weather History & Observations

Time (CST) Temp. Windchill Dew Point Humidity Pressure Visibility Wind Dir Wind Speed Gust Speed Precip Events Conditions
12:53 AM 26.1 °F 21.9 °F 21.0 °F 81% 30.18 in 10.0 mi SSW 3.5 mph - N/A   Clear
1:53 AM 25.0 °F 20.7 °F 21.0 °F 85% 30.17 in 10.0 mi South 3.5 mph - N/A   Clear
2:53 AM 24.1 °F 19.7 °F 19.9 °F 84% 30.16 in 10.0 mi South 3.5 mph - N/A   Clear
3:53 AM 24.1 °F 19.7 °F 19.9 °F 84% 30.17 in 10.0 mi SW 3.5 mph - N/A   Clear
4:53 AM 23.0 °F 18.4 °F 19.9 °F 88% 30.16 in 10.0 mi South 3.5 mph - N/A   Clear
5:53 AM 24.1 °F 17.0 °F 21.0 °F 88% 30.13 in 10.0 mi South 5.8 mph - N/A   Clear
6:53 AM 23.0 °F 13.9 °F 19.9 °F 88% 30.14 in 10.0 mi South 8.1 mph - N/A   Clear
7:53 AM 24.1 °F 14.4 °F 21.0 °F 88% 30.12 in 10.0 mi SSE 9.2 mph - N/A   Clear
8:53 AM 28.0 °F 18.1 °F 23.0 °F 81% 30.11 in 10.0 mi South 11.5 mph - N/A   Clear
9:53 AM 30.9 °F 20.7 °F 25.0 °F 79% 30.11 in 10.0 mi South 13.8 mph - N/A   Clear
10:53 AM 32.0 °F 22.5 °F 25.0 °F 75% 30.12 in 10.0 mi SSW 12.7 mph - N/A   Scattered Clouds
11:53 AM 34.0 °F 25.0 °F 26.1 °F 73% 30.08 in 10.0 mi South 12.7 mph - N/A   Clear
12:53 PM 35.1 °F 25.5 °F 26.1 °F 70% 30.08 in 10.0 mi South 15.0 mph - N/A   Clear
1:53 PM 37.0 °F 29.8 °F 26.1 °F 65% 30.08 in 10.0 mi South 10.4 mph - N/A   Clear
2:53 PM 37.9 °F 32.7 °F 27.0 °F 65% 30.08 in 10.0 mi SSW 6.9 mph - N/A   Clear
4:53 PM 36.0 °F - 26.1 °F 67% 30.10 in 10.0 mi Calm Calm - N/A   Clear
5:53 PM 36.0 °F - 27.0 °F 70% 30.12 in 10.0 mi Calm Calm - N/A   Clear
6:53 PM 36.0 °F 33.3 °F 27.0 °F 70% 30.14 in 10.0 mi NNW 3.5 mph - N/A   Clear
7:53 PM 36.0 °F 32.1 °F 26.1 °F 67% 30.16 in 10.0 mi NNW 4.6 mph - N/A   Clear
8:53 PM 36.0 °F 29.6 °F 25.0 °F 64% 30.17 in 10.0 mi NNW 8.1 mph - N/A   Clear
9:53 PM 37.9 °F 30.9 °F 27.0 °F 65% 30.21 in 10.0 mi North 10.4 mph - N/A   Clear
10:53 PM 35.1 °F 27.9 °F 27.0 °F 72% 30.22 in 10.0 mi NNW 9.2 mph - N/A   Clear
11:53 PM 34.0 °F 26.6 °F 27.0 °F 75% 30.23 in 10.0 mi North 9.2 mph - N/A   Clear